When you browse on this site, cookies collect data to enhance your experience and personalize the content and advertising you see.
Visit our Privacy Policy to learn more. By continuing to use the site, you agree to this use of cookies and data.
  • In Österreich
  • Länderverzeichnis
  • Für 7 Tage
  • Wassertemperatur
  • Satellitenkarten
  • Wetterkarte
  • News
  • Widgets
  • user-avatar
    Anmelden

    Stündliche Wetter Gjirokaster

    Heute, 25 Mai, Samstag

    Zeit Temperatur Niederschläge Wind Luftdruck Luftfeuchtigkeit
    00:00 +7°C° 0 mm 1 m/S 649 mmHg 94%
    01:00 +7°C° 0 mm 1 m/S 649 mmHg 95%
    02:00 +7°C° 0 mm 1 m/S 649 mmHg 94%
    03:00 +7°C° 0 mm 1 m/S 649 mmHg 94%
    04:00 +6°C° 0 mm 1 m/S 649 mmHg 93%
    05:00 +8°C° 0 mm 1 m/S 650 mmHg 87%
    06:00 +10°C° 0 mm 1 m/S 651 mmHg 81%
    07:00 +11°C° 0 mm 1 m/S 651 mmHg 74%
    08:00 +12°C° 0 mm 1 m/S 652 mmHg 69%
    09:00 +14°C° 0 mm 1 m/S 652 mmHg 63%
    10:00 +15°C° 0 mm 2 m/S 653 mmHg 58%
    11:00 +15°C° 0 mm 2 m/S 653 mmHg 58%
    12:00 +16°C° 0 mm 2 m/S 653 mmHg 58%
    13:00 +16°C° 0 mm 3 m/S 653 mmHg 58%
    14:00 +16°C° 0.1 mm 2 m/S 653 mmHg 61%
    15:00 +16°C° 0.1 mm 2 m/S 653 mmHg 63%
    16:00 +16°C° 0.1 mm 2 m/S 652 mmHg 66%
    17:00 +14°C° 0 mm 2 m/S 652 mmHg 73%
    18:00 +12°C° 0 mm 1 m/S 651 mmHg 80%
    19:00 +11°C° 0 mm 1 m/S 651 mmHg 86%
    20:00 +10°C° 0 mm 0 m/S 651 mmHg 87%
    21:00 +9°C° 0 mm 0 m/S 651 mmHg 88%
    22:00 +9°C° 0 mm 0 m/S 652 mmHg 89%
    23:00 +9°C° 0 mm 0 m/S 651 mmHg 89%

    Morgen, 26 Mai, Sonntag

    Zeit Temperatur Niederschläge Wind Luftdruck Luftfeuchtigkeit
    00:00 +8°C° 0 mm 0 m/S 651 mmHg 90%
    01:00 +9°C° 0 mm 1 m/S 651 mmHg 90%
    02:00 +9°C° 0 mm 1 m/S 651 mmHg 90%
    03:00 +8°C° 0 mm 1 m/S 651 mmHg 90%
    04:00 +8°C° 0 mm 1 m/S 650 mmHg 89%
    05:00 +10°C° 0 mm 1 m/S 651 mmHg 83%
    06:00 +12°C° 0 mm 1 m/S 651 mmHg 77%
    07:00 +13°C° 0 mm 1 m/S 652 mmHg 70%
    08:00 +15°C° 0 mm 1 m/S 652 mmHg 64%
    09:00 +17°C° 0 mm 2 m/S 653 mmHg 57%
    10:00 +18°C° 0 mm 2 m/S 653 mmHg 51%
    11:00 +19°C° 0 mm 2 m/S 653 mmHg 52%
    12:00 +19°C° 0 mm 2 m/S 653 mmHg 53%
    13:00 +19°C° 0 mm 2 m/S 653 mmHg 54%
    14:00 +19°C° 0 mm 2 m/S 653 mmHg 55%
    15:00 +19°C° 0 mm 2 m/S 653 mmHg 55%
    16:00 +20°C° 0 mm 1 m/S 653 mmHg 56%
    17:00 +18°C° 0 mm 1 m/S 652 mmHg 61%
    18:00 +16°C° 0 mm 1 m/S 652 mmHg 67%
    19:00 +13°C° 0 mm 0 m/S 651 mmHg 72%
    20:00 +14°C° 0 mm 1 m/S 651 mmHg 74%
    21:00 +13°C° 0 mm 1 m/S 651 mmHg 76%
    22:00 +13°C° 0 mm 1 m/S 651 mmHg 77%
    23:00 +13°C° 0 mm 1 m/S 651 mmHg 78%

    übermorgen, 27 Mai, Montag

    Zeit Temperatur Niederschläge Wind Luftdruck Luftfeuchtigkeit
    00:00 +12°C° 0 mm 2 m/S 651 mmHg 79%
    01:00 +12°C° 0 mm 2 m/S 650 mmHg 80%
    02:00 +12°C° 0 mm 2 m/S 650 mmHg 80%
    03:00 +12°C° 0 mm 2 m/S 650 mmHg 80%
    04:00 +12°C° 0 mm 1 m/S 649 mmHg 80%
    05:00 +12°C° 0.5 mm 2 m/S 649 mmHg 81%
    06:00 +12°C° 0.5 mm 2 m/S 649 mmHg 83%
    07:00 +12°C° 0.5 mm 2 m/S 650 mmHg 85%
    08:00 +14°C° 0.3 mm 2 m/S 650 mmHg 79%
    09:00 +16°C° 0.3 mm 3 m/S 650 mmHg 73%
    10:00 +17°C° 0.3 mm 3 m/S 651 mmHg 66%
    11:00 +19°C° 0.1 mm 3 m/S 651 mmHg 61%
    12:00 +20°C° 0.1 mm 4 m/S 651 mmHg 55%
    13:00 +21°C° 0.1 mm 4 m/S 651 mmHg 50%
    14:00 +20°C° 0 mm 4 m/S 651 mmHg 54%
    15:00 +20°C° 0 mm 3 m/S 650 mmHg 59%
    16:00 +19°C° 0 mm 3 m/S 650 mmHg 64%
    17:00 +17°C° 0.1 mm 3 m/S 649 mmHg 70%
    18:00 +14°C° 0.1 mm 3 m/S 649 mmHg 76%
    19:00 +12°C° 0.1 mm 3 m/S 649 mmHg 82%
    20:00 +11°C° 0 mm 3 m/S 649 mmHg 84%
    21:00 +10°C° 0 mm 3 m/S 649 mmHg 87%
    22:00 +10°C° 0 mm 4 m/S 649 mmHg 89%
    23:00 +8°C° 0 mm 4 m/S 649 mmHg 90%

    28 Mai, Dienstag

    Zeit Temperatur Niederschläge Wind Luftdruck Luftfeuchtigkeit
    00:00 +8°C° 0 mm 4 m/S 648 mmHg 91%
    01:00 +8°C° 0 mm 4 m/S 648 mmHg 92%
    02:00 +8°C° 0 mm 4 m/S 648 mmHg 91%
    03:00 +9°C° 0 mm 3 m/S 648 mmHg 91%
    04:00 +9°C° 0 mm 3 m/S 648 mmHg 91%
    05:00 +10°C° 0 mm 4 m/S 648 mmHg 86%
    06:00 +11°C° 0 mm 4 m/S 649 mmHg 82%
    07:00 +12°C° 0 mm 5 m/S 649 mmHg 78%
    08:00 +12°C° 0.1 mm 5 m/S 649 mmHg 76%
    09:00 +13°C° 0.1 mm 5 m/S 650 mmHg 74%
    10:00 +14°C° 0.1 mm 5 m/S 650 mmHg 73%
    11:00 +14°C° 0.5 mm 5 m/S 650 mmHg 75%
    12:00 +13°C° 0.5 mm 4 m/S 650 mmHg 76%
    13:00 +13°C° 0.5 mm 4 m/S 650 mmHg 78%
    14:00 +13°C° 0.4 mm 4 m/S 650 mmHg 79%
    15:00 +13°C° 0.4 mm 4 m/S 650 mmHg 80%
    16:00 +12°C° 0.4 mm 4 m/S 649 mmHg 81%
    17:00 +12°C° 0.4 mm 3 m/S 649 mmHg 85%
    18:00 +11°C° 0.4 mm 3 m/S 649 mmHg 90%
    19:00 +10°C° 0.4 mm 3 m/S 649 mmHg 94%
    20:00 +10°C° 0.3 mm 3 m/S 650 mmHg 94%
    21:00 +10°C° 0.3 mm 3 m/S 650 mmHg 95%
    22:00 +9°C° 0.3 mm 3 m/S 650 mmHg 96%
    23:00 +9°C° 0.1 mm 2 m/S 650 mmHg 96%

    29 Mai, Mittwoch

    Zeit Temperatur Niederschläge Wind Luftdruck Luftfeuchtigkeit
    00:00 +9°C° 0.1 mm 2 m/S 650 mmHg 97%
    01:00 +9°C° 0.1 mm 2 m/S 650 mmHg 97%
    02:00 +9°C° 0 mm 2 m/S 650 mmHg 97%
    03:00 +9°C° 0 mm 2 m/S 650 mmHg 97%
    04:00 +9°C° 0 mm 2 m/S 650 mmHg 97%
    05:00 +9°C° 0 mm 2 m/S 651 mmHg 94%
    06:00 +10°C° 0 mm 3 m/S 651 mmHg 91%
    07:00 +11°C° 0 mm 3 m/S 652 mmHg 88%
    08:00 +12°C° 0 mm 3 m/S 652 mmHg 84%
    09:00 +13°C° 0 mm 3 m/S 653 mmHg 80%
    10:00 +14°C° 0 mm 3 m/S 653 mmHg 76%
    11:00 +15°C° 0.1 mm 2 m/S 653 mmHg 74%
    12:00 +16°C° 0.1 mm 2 m/S 653 mmHg 72%
    13:00 +17°C° 0.1 mm 2 m/S 653 mmHg 70%
    14:00 +16°C° 0 mm 2 m/S 653 mmHg 70%
    15:00 +16°C° 0 mm 2 m/S 654 mmHg 71%
    16:00 +16°C° 0 mm 2 m/S 654 mmHg 72%
    17:00 +15°C° 0 mm 1 m/S 653 mmHg 78%
    18:00 +13°C° 0 mm 1 m/S 653 mmHg 84%
    19:00 +12°C° 0 mm 1 m/S 653 mmHg 91%
    20:00 +12°C° 0 mm 1 m/S 653 mmHg 92%
    21:00 +11°C° 0 mm 1 m/S 653 mmHg 93%
    22:00 +11°C° 0 mm 1 m/S 653 mmHg 93%
    23:00 +11°C° 0 mm 1 m/S 653 mmHg 93%

    30 Mai, Donnerstag

    Zeit Temperatur Niederschläge Wind Luftdruck Luftfeuchtigkeit
    00:00 +10°C° 0 mm 1 m/S 653 mmHg 93%
    01:00 +10°C° 0 mm 1 m/S 653 mmHg 93%
    02:00 +10°C° 0 mm 1 m/S 653 mmHg 92%
    03:00 +10°C° 0 mm 1 m/S 653 mmHg 91%
    04:00 +10°C° 0 mm 1 m/S 653 mmHg 90%
    05:00 +11°C° 0 mm 1 m/S 653 mmHg 83%
    06:00 +13°C° 0 mm 1 m/S 654 mmHg 76%
    07:00 +15°C° 0 mm 1 m/S 655 mmHg 68%
    08:00 +16°C° 0 mm 1 m/S 655 mmHg 63%
    09:00 +18°C° 0 mm 2 m/S 655 mmHg 58%
    10:00 +19°C° 0 mm 2 m/S 656 mmHg 54%
    11:00 +19°C° 0.3 mm 2 m/S 656 mmHg 54%
    12:00 +20°C° 0.3 mm 2 m/S 655 mmHg 55%
    13:00 +20°C° 0.3 mm 2 m/S 655 mmHg 55%
    14:00 +20°C° 0.6 mm 3 m/S 655 mmHg 58%
    15:00 +19°C° 0.6 mm 3 m/S 655 mmHg 60%
    16:00 +19°C° 0.6 mm 3 m/S 655 mmHg 63%
    17:00 +17°C° 0.4 mm 3 m/S 654 mmHg 69%
    18:00 +15°C° 0.4 mm 2 m/S 654 mmHg 75%
    19:00 +14°C° 0.4 mm 2 m/S 653 mmHg 81%
    20:00 +13°C° 0 mm 2 m/S 653 mmHg 82%
    21:00 +13°C° 0 mm 2 m/S 653 mmHg 83%
    22:00 +12°C° 0 mm 1 m/S 653 mmHg 84%
    23:00 +12°C° 0 mm 1 m/S 653 mmHg 84%
    Mehr zeigen